STARLINK-35405, 66440

Orbit data source: Space-Track

STARLINK-35405, 66440 is a payload satellite owned by SpaceX/Seattle (US) in LEO that was launched on Tue, 11 Nov 2025 UTC via an FALCON 9 launch vehicle from the Air Force Eastern Test Range (AFETR). Payload-class satellites include a variety of spacecraft equipped with specific instruments for various scientific and technological missions. These include communications satellites like Starlink; space stations such as the ISS; scientific satellites like the Hubble; Earth observation satellites from companies like Planet Labs, Umbra, and HawkEye 360; GPS; miniature CubeSats for education and research; and military/defense satellites.

Loading next visibility...
Identifier
66440, 2025-259U
Orbit
LEO
Country
Flag of USUS
Related business
Manufacturer
SpaceX/Seattle
Mission
Operational Commercial Communications
Bus & Motor
STARLINK V2MO, Unknown motor
Mass
575 kg wet, ~530 kg dry
Launch date (UTC)
2025-11-11 (7 months ago)
Launch vehicle
FALCON 9
Launch site
Air Force Eastern Test Range (AFETR)
Object type
Payload
Rocket body
Debris
Shape & HBR
Box + 2 Pan, 17.7 m
Radar Cross Section
36.964 m², Large (>1 m²)

Expand to show TLE details & history
Last TLE update: 13 hours ago

TLE from 13 hours ago
0 STARLINK-35405
1 66440U 25259U   26171.36159767  .00014229  00000-0  52551-3 0  9993
2 66440  42.9960  54.5076 0000726 315.7842  44.2952 15.27585448 35197
Epoch: 2026-06-20T08:40Z
TLE epoch observation values (Epoch: 2026-06-20T08:40:42.038Z)
Latitude
0.00001°
Longitude
15.75513°
Altitude
482.451 km
Speed
7.626 km/s
True Right ascension
03h 38m 01s
True Declination
0° 00' 00"
Sunlit
Object was in daylight at epoch
Visualization orbit readout
Latitude
Unknown
Longitude
Unknown
Altitude
Unknown
Speed
Unknown
Apparent Right ascension
Unknown
Apparent Declination
Unknown
Sunlit
N/A
Visualization observer readout
Local Sidereal Time
08:33:33
Azimuth
Unknown
Elevation
Unknown
Doppler factor
Unknown
Orbital elements
Apogee altitude
485.477 km
Perigee altitude
484.48 km
Semi-major axis
6,863.116 km
Eccentricity
0.00007
Inclination
42.996°
RAAN
54.5076°
Arg. of periapsis
315.7842°
True anomaly
44.30101°
Mean anomaly
44.2952°
Eccentric anomaly
44.29811°
Mean motion
3.81734 °/min
Orbital period
94.31 mins
BSTAR
0.00052551
Loading maneuver chart data...
Computing Atmospheric mass density...
Loading historical data...
Loading historical data...
Loading historical data...
Loading historical data...
Loading historical data...
Loading historical data...
Loading historical data...

Documentation

Showing up to 5 results
|